• en Belgique
  • Liste des pays
  • À 7 jours
  • Température de l'eau
  • Carte satellitaire
  • Carte météo
  • Widgets météo
  • user-avatar
    Se connecter

    Météo par heure à Brugges

    Ce jour, 27 Mai, Dimanche

    Heure Température Précipitation Vent Pression Humidité
    00:00 +20°C° 0,3 mm 4 m/s 762 mmHg 80%
    01:00 +20°C° 0,4 mm 4 m/s 762 mmHg 82%
    02:00 +19°C° 0,4 mm 4 m/s 762 mmHg 84%
    03:00 +19°C° 0,4 mm 4 m/s 761 mmHg 87%
    04:00 +19°C° 0,1 mm 4 m/s 761 mmHg 85%
    05:00 +20°C° 0,1 mm 5 m/s 762 mmHg 84%
    06:00 +20°C° 0,1 mm 5 m/s 762 mmHg 83%
    07:00 +21°C° 0,4 mm 5 m/s 762 mmHg 79%
    08:00 +23°C° 0,4 mm 4 m/s 762 mmHg 76%
    09:00 +25°C° 0,4 mm 4 m/s 762 mmHg 72%
    10:00 +26°C° 0 mm 4 m/s 761 mmHg 68%
    11:00 +27°C° 0 mm 4 m/s 761 mmHg 63%
    12:00 +29°C° 0 mm 4 m/s 761 mmHg 59%
    13:00 +29°C° 0,8 mm 4 m/s 761 mmHg 59%
    14:00 +29°C° 0,8 mm 3 m/s 760 mmHg 60%
    15:00 +29°C° 0,8 mm 3 m/s 760 mmHg 60%
    16:00 +28°C° 1,2 mm 3 m/s 760 mmHg 64%
    17:00 +27°C° 1,2 mm 3 m/s 760 mmHg 68%
    18:00 +27°C° 1,2 mm 3 m/s 760 mmHg 72%
    19:00 +25°C° 2,6 mm 3 m/s 760 mmHg 75%
    20:00 +22°C° 2,6 mm 3 m/s 760 mmHg 79%
    21:00 +21°C° 2,6 mm 3 m/s 761 mmHg 82%
    22:00 +20°C° 0 mm 3 m/s 761 mmHg 84%
    23:00 +20°C° 0 mm 3 m/s 761 mmHg 86%

    Demain, 28 Mai, Lundi

    Heure Température Précipitation Vent Pression Humidité
    00:00 +19°C° 0 mm 3 m/s 761 mmHg 87%
    01:00 +19°C° 0 mm 3 m/s 761 mmHg 88%
    02:00 +19°C° 0 mm 2 m/s 761 mmHg 89%
    03:00 +18°C° 0 mm 2 m/s 761 mmHg 90%
    04:00 +19°C° 0 mm 2 m/s 761 mmHg 87%
    05:00 +21°C° 0 mm 1 m/s 761 mmHg 84%
    06:00 +22°C° 0 mm 1 m/s 761 mmHg 81%
    07:00 +23°C° 0 mm 1 m/s 761 mmHg 76%
    08:00 +25°C° 0 mm 1 m/s 761 mmHg 70%
    09:00 +26°C° 0 mm 2 m/s 762 mmHg 65%
    10:00 +27°C° 0 mm 2 m/s 761 mmHg 61%
    11:00 +28°C° 0 mm 2 m/s 761 mmHg 58%
    12:00 +29°C° 0 mm 3 m/s 761 mmHg 55%
    13:00 +29°C° 0,3 mm 3 m/s 761 mmHg 56%
    14:00 +29°C° 0,3 mm 4 m/s 761 mmHg 56%
    15:00 +29°C° 0,3 mm 4 m/s 761 mmHg 57%
    16:00 +28°C° 0,7 mm 4 m/s 761 mmHg 63%
    17:00 +26°C° 0,7 mm 4 m/s 761 mmHg 69%
    18:00 +25°C° 0,7 mm 4 m/s 761 mmHg 75%
    19:00 +23°C° 0,5 mm 5 m/s 761 mmHg 78%
    20:00 +22°C° 0,5 mm 5 m/s 761 mmHg 82%
    21:00 +21°C° 0,5 mm 5 m/s 761 mmHg 85%
    22:00 +21°C° 0,6 mm 5 m/s 761 mmHg 86%
    23:00 +21°C° 0,6 mm 5 m/s 761 mmHg 88%

    Après-demain, 29 Mai, Mardi

    Heure Température Précipitation Vent Pression Humidité
    00:00 +21°C° 0,6 mm 4 m/s 761 mmHg 90%
    01:00 +20°C° 0,6 mm 4 m/s 761 mmHg 91%
    02:00 +20°C° 0,6 mm 4 m/s 761 mmHg 92%
    03:00 +20°C° 0,6 mm 5 m/s 760 mmHg 93%
    04:00 +20°C° 0 mm 5 m/s 760 mmHg 93%
    05:00 +20°C° 0 mm 5 m/s 760 mmHg 92%
    06:00 +20°C° 0 mm 5 m/s 760 mmHg 91%
    07:00 +21°C° 0,5 mm 6 m/s 760 mmHg 87%
    08:00 +22°C° 0,5 mm 6 m/s 760 mmHg 83%
    09:00 +24°C° 0,5 mm 6 m/s 760 mmHg 78%
    10:00 +24°C° 0,9 mm 6 m/s 759 mmHg 77%
    11:00 +25°C° 0,9 mm 5 m/s 759 mmHg 75%
    12:00 +26°C° 0,9 mm 5 m/s 759 mmHg 74%
    13:00 +25°C° 0,3 mm 5 m/s 759 mmHg 74%
    14:00 +25°C° 0,3 mm 5 m/s 759 mmHg 75%
    15:00 +25°C° 0,3 mm 5 m/s 758 mmHg 75%
    16:00 +23°C° 0,4 mm 5 m/s 758 mmHg 78%
    17:00 +23°C° 0,4 mm 5 m/s 758 mmHg 80%
    18:00 +22°C° 0,4 mm 5 m/s 757 mmHg 82%
    19:00 +21°C° 0,7 mm 5 m/s 758 mmHg 85%
    20:00 +20°C° 0,7 mm 4 m/s 758 mmHg 87%
    21:00 +19°C° 0,7 mm 4 m/s 758 mmHg 90%
    22:00 +19°C° 0,3 mm 4 m/s 757 mmHg 91%
    23:00 +18°C° 0,3 mm 3 m/s 757 mmHg 92%

    30 Mai, Mercredi

    Heure Température Précipitation Vent Pression Humidité
    00:00 +18°C° 0,3 mm 3 m/s 757 mmHg 92%
    01:00 +18°C° 0 mm 3 m/s 757 mmHg 93%
    02:00 +17°C° 0 mm 3 m/s 756 mmHg 94%
    03:00 +17°C° 0 mm 2 m/s 756 mmHg 94%
    04:00 +18°C° 0 mm 2 m/s 756 mmHg 93%
    05:00 +18°C° 0 mm 2 m/s 756 mmHg 91%
    06:00 +19°C° 0 mm 2 m/s 756 mmHg 90%
    07:00 +20°C° 0 mm 2 m/s 756 mmHg 85%
    08:00 +23°C° 0 mm 2 m/s 757 mmHg 81%
    09:00 +24°C° 0 mm 2 m/s 757 mmHg 76%
    10:00 +24°C° 0,1 mm 2 m/s 757 mmHg 74%
    11:00 +25°C° 0,1 mm 2 m/s 757 mmHg 71%
    12:00 +26°C° 0,1 mm 3 m/s 756 mmHg 68%
    13:00 +26°C° 0,5 mm 3 m/s 756 mmHg 70%
    14:00 +25°C° 0,5 mm 3 m/s 756 mmHg 72%
    15:00 +25°C° 0,5 mm 3 m/s 756 mmHg 73%
    16:00 +24°C° 0,4 mm 3 m/s 756 mmHg 76%
    17:00 +24°C° 0,4 mm 3 m/s 757 mmHg 80%
    18:00 +22°C° 0,4 mm 3 m/s 757 mmHg 83%
    19:00 +21°C° 0 mm 3 m/s 757 mmHg 86%
    20:00 +20°C° 0 mm 2 m/s 757 mmHg 89%
    21:00 +18°C° 0 mm 2 m/s 758 mmHg 92%
    22:00 +18°C° 0 mm 2 m/s 758 mmHg 92%
    23:00 +18°C° 0 mm 2 m/s 758 mmHg 92%

    31 Mai, Jeudi

    Heure Température Précipitation Vent Pression Humidité
    00:00 +19°C° 0 mm 1 m/s 758 mmHg 92%
    01:00 +18°C° 0 mm 2 m/s 758 mmHg 93%
    02:00 +17°C° 0 mm 2 m/s 758 mmHg 93%
    03:00 +17°C° 0 mm 2 m/s 758 mmHg 94%
    04:00 +18°C° 0 mm 2 m/s 758 mmHg 92%
    05:00 +20°C° 0 mm 1 m/s 758 mmHg 90%
    06:00 +20°C° 0 mm 1 m/s 759 mmHg 88%
    07:00 +21°C° 0 mm 1 m/s 759 mmHg 84%
    08:00 +23°C° 0 mm 1 m/s 759 mmHg 80%
    09:00 +24°C° 0 mm 1 m/s 759 mmHg 76%
    10:00 +24°C° 0,2 mm 2 m/s 759 mmHg 75%
    11:00 +25°C° 0,2 mm 2 m/s 759 mmHg 74%
    12:00 +25°C° 0,2 mm 3 m/s 759 mmHg 73%
    13:00 +24°C° 0,7 mm 3 m/s 759 mmHg 76%
    14:00 +24°C° 0,7 mm 3 m/s 759 mmHg 78%
    15:00 +22°C° 0,7 mm 3 m/s 759 mmHg 81%
    16:00 +22°C° 0,4 mm 3 m/s 759 mmHg 84%
    17:00 +21°C° 0,4 mm 3 m/s 759 mmHg 86%
    18:00 +20°C° 0,4 mm 3 m/s 759 mmHg 88%
    19:00 +20°C° 0,2 mm 3 m/s 760 mmHg 90%
    20:00 +19°C° 0,2 mm 3 m/s 760 mmHg 92%
    21:00 +18°C° 0,2 mm 3 m/s 760 mmHg 93%
    22:00 +18°C° 0 mm 3 m/s 760 mmHg 93%
    23:00 +18°C° 0 mm 2 m/s 760 mmHg 93%

    1 Juin, Vendredi

    Heure Température Précipitation Vent Pression Humidité
    00:00 +18°C° 0 mm 2 m/s 760 mmHg 93%
    01:00 +17°C° 0 mm 2 m/s 760 mmHg 93%
    02:00 +17°C° 0 mm 2 m/s 760 mmHg 94%
    03:00 +17°C° 0 mm 3 m/s 760 mmHg 94%
    04:00 +17°C° 0 mm 2 m/s 760 mmHg 92%
    05:00 +18°C° 0 mm 2 m/s 760 mmHg 90%
    06:00 +18°C° 0 mm 2 m/s 761 mmHg 89%
    07:00 +20°C° 0 mm 2 m/s 761 mmHg 84%
    08:00 +21°C° 0 mm 2 m/s 761 mmHg 79%
    09:00 +23°C° 0 mm 2 m/s 761 mmHg 75%
    10:00 +24°C° 0 mm 3 m/s 761 mmHg 73%
    11:00 +24°C° 0 mm 3 m/s 761 mmHg 72%
    12:00 +25°C° 0 mm 4 m/s 761 mmHg 70%
    13:00 +23°C° 0,3 mm 4 m/s 761 mmHg 73%
    14:00 +23°C° 0,3 mm 4 m/s 761 mmHg 75%
    15:00 +22°C° 0,3 mm 3 m/s 761 mmHg 77%
    16:00 +21°C° 0,1 mm 3 m/s 761 mmHg 79%
    17:00 +21°C° 0,1 mm 3 m/s 761 mmHg 81%
    18:00 +20°C° 0,1 mm 2 m/s 761 mmHg 84%
    19:00 +19°C° 0 mm 3 m/s 761 mmHg 85%
    20:00 +18°C° 0 mm 3 m/s 761 mmHg 87%
    21:00 +17°C° 0 mm 3 m/s 762 mmHg 89%
    22:00 +17°C° 0 mm 3 m/s 762 mmHg 91%
    23:00 +17°C° 0 mm 3 m/s 762 mmHg 92%
    Voir plus